Location: Absher
(46.5583°N, 107.9840°W)
Time: 06:40:50
(UTC+00:00)

STRAND 1 - Pass Details

Date: 01 April 2023
Orbit: 767 x 779 km, 98.4° (Epoch: 03 June)

Event Time Altitude Azimuth Distance (km) Brightness Sun altitude
Rises 11:31:00 0° 117° (ESE) 3,247 ? -14.2°
Reaches altitude 10° 11:34:00 10° 99° (E) 2,322 ? -13.7°
Maximum altitude 11:37:18 18° 58° (ENE) 1,848 ? -13.2°
Drops below altitude 10° 11:40:37 10° 18° (NNE) 2,327 ? -12.7°
Sets 11:43:37 0° 360° (N) 3,257 ? -12.2°
